Flag for Finland Weather past 2 weeks in Rovaniemi, Finland

Now
43 °F

Broken clouds.


Feels Like: 37 °F
Forecast: 35 / 44 °F
Wind: 9 mph from Northwest

Location: Rovaniemi Airport

Current Time: Apr 21, 2015 at 11:32:52 AM

Latest Report: Apr 21, 2015 at 11:20 AM


Visibility: N/A

Pressure: 30.01 "Hg

Humidity: 71%

Dew point: 34 °F

Location of RovaniemiLocation

Historic Weather in Rovaniemi — Graph

°F

Rovaniemi temperature yesterday

Maximum temperature yesterday: 41 °F (at 2:20 PM)
Minimum temperature yesterday: 30 °F (at 4:50 AM)
Average temperature yesterday: 36 °F

Past Weeks' High & Low Weather Summary

 TemperatureHumidityPressure
High46 °F (Apr 12, 2:50 PM)100% (Apr 6, 11:50 AM)30.04 "Hg (Apr 6, 11:50 AM)
Low21 °F (Apr 11, 4:50 AM)33% (Apr 11, 6:50 PM)29.21 "Hg (Apr 10, 3:20 PM)
Average35 °F80%29.63 "Hg
* Reported Apr 6 10:20 AM — Apr 21 10:20 AM, Rovaniemi, Weather by CustomWeather, © 2015

Note: Actual official high and low records may vary slightly from our data, if they occured in-between our weather recording intervals... More about our weather records

Advertising

Rovaniemi weather history for previous 24 hours

 ConditionsComfort  
Time TempWeatherWind HumidityBarometerVisibility
10:20 AM
Tue, Apr 21
41 °FPartly sunny.8 mph76%30.01 "HgN/A
9:50 AM41 °FPartly sunny.6 mph76%29.98 "HgN/A
9:20 AM41 °FPartly sunny.6 mph76%29.98 "HgN/A
8:50 AM39 °FSunny.7 mph81%30.01 "Hg10 mi
8:20 AM39 °FPassing clouds.7 mph75%29.98 "HgN/A
7:50 AM39 °FPassing clouds.10 mph75%29.98 "HgN/A
7:20 AM37 °FSunny.7 mph81%29.98 "Hg10 mi
6:20 AM36 °FSunny.7 mph81%29.98 "Hg10 mi
5:50 AM36 °FClear.6 mph81%30.01 "Hg10 mi
5:20 AM37 °FClear.5 mph81%30.01 "Hg10 mi
4:50 AM37 °FClear.7 mph81%30.01 "Hg10 mi
4:20 AM37 °FClear.8 mph81%30.01 "Hg10 mi
3:50 AM37 °FClear.9 mph81%30.01 "Hg10 mi
3:20 AM37 °FClear.7 mph81%30.01 "Hg10 mi
2:50 AM37 °FClear.8 mph81%30.01 "Hg10 mi
2:20 AM37 °FClear.8 mph75%30.01 "Hg10 mi
1:50 AM37 °FClear.8 mph75%30.01 "Hg10 mi
1:20 AM39 °FClear.8 mph75%30.01 "Hg10 mi
12:50 AM39 °FClear.7 mph75%29.98 "Hg10 mi
12:20 AM39 °FClear.6 mph70%29.98 "Hg10 mi
11:50 PM
Mon, Apr 20
39 °FClear.6 mph70%29.98 "Hg10 mi
11:20 PM39 °FClear.5 mph70%29.98 "Hg10 mi
10:50 PM37 °FClear.2 mph75%29.98 "Hg10 mi
10:20 PM37 °FPassing clouds.5 mph75%29.98 "HgN/A
9:50 PM37 °FPassing clouds.3 mph81%29.98 "HgN/A
9:20 PM37 °FOvercast.7 mph75%29.98 "HgN/A
8:50 PM36 °FSprinkles. Partly sunny.7 mph87%29.98 "HgN/A
8:20 PM37 °FSprinkles. Overcast.7 mph81%29.98 "HgN/A
7:50 PM37 °FLight rain. Partly sunny.6 mph81%29.98 "HgN/A
7:20 PM37 °FLight rain. Overcast.7 mph81%29.98 "HgN/A
6:50 PM37 °FLight rain. Partly sunny.6 mph81%29.98 "HgN/A
6:20 PM37 °FLight rain. Mostly cloudy.5 mph81%29.98 "HgN/A
5:50 PM37 °FLight rain. Broken clouds.9 mph75%29.98 "HgN/A
5:20 PM39 °FOvercast.8 mph61%29.98 "HgN/A
4:50 PM39 °FPartly sunny.10 mph56%29.98 "HgN/A
4:20 PM41 °FSunny.12 mph53%29.98 "Hg10 mi
3:50 PM41 °FScattered clouds.9 mph53%29.98 "HgN/A
3:20 PM41 °FPartly sunny.8 mph49%29.98 "HgN/A
2:50 PM41 °FPartly sunny.10 mph49%30.01 "HgN/A
2:20 PM41 °FPartly sunny.7 mph49%30.01 "HgN/A
1:50 PM39 °FPartly sunny.9 mph52%30.01 "HgN/A
1:20 PM39 °FPartly sunny.8 mph52%30.04 "HgN/A
12:50 PM39 °FScattered clouds.9 mph52%30.01 "HgN/A
12:20 PM39 °FBroken clouds.12 mph52%30.04 "HgN/A
11:50 AM39 °FScattered clouds.14 mph52%30.01 "HgN/A
11:20 AM37 °FScattered clouds.13 mph60%30.01 "HgN/A
Weather by CustomWeather, © 2015

See weather overviewHow to use our weather pages